KCMH Airport Diagram

We have created a template for each of the higher traffic airports in the vZID airspace. They include KCMH, KCRW, KCVG, KDAY, KIND, KLEX and KSDF. You wil find usefull information including the airport diagram, weather, and specific airport procedures.

KCMH Weather

[Source: ADDS]
METAR
KCMH 230251Z 04004KT 8SM OVC240 02/M03 A3034 RMK AO2 SLP281 T00171028 58005 =
KCMH 222343Z 2300/2324 07004KT P6SM BKN150 OVC250 FM231500 12009KT P6SM -SHRA OVC025 FM232000 14012KT P6SM VCSH OVC009
TAF
KCMH 222343Z 2300/2324 07004KT P6SM BKN150 OVC250 FM231500 12009KT P6SM -SHRA OVC025 FM232000 14012KT P6SM VCSH OVC009 =

KCMH Operations

Calm wind runway(s) up to 10 kts: Arriving/Departing 28L/R

Typically, Rw 10R/28L for departures to the West and South and Rw 10L/28R for departures to the North and East.

FBOs: Lane Aviation midfield near Tower, Signature South of Twy B.

Advise ATC if you have updated scenery for KCMH as there are significant changes to the runway/taxiways on the South side of the airport. Default scenery does not match the Airport Diagram available through the usual sources.

JSN Epic template designed by JoomlaShine.com